Hourly Weather Kleka

Today, 2 August, Monday

Time Temperature Precipitation Wind Pressure Humidity
00:00 +14°C° 0 mm 3 mps 747 mmHg 92%
01:00 +13°C° 0 mm 3 mps 747 mmHg 93%
02:00 +13°C° 0 mm 3 mps 747 mmHg 93%
03:00 +13°C° 0 mm 3 mps 747 mmHg 94%
04:00 +13°C° 0 mm 3 mps 747 mmHg 95%
05:00 +14°C° 0 mm 4 mps 747 mmHg 91%
06:00 +15°C° 0 mm 4 mps 748 mmHg 88%
07:00 +16°C° 0 mm 5 mps 748 mmHg 84%
08:00 +17°C° 0 mm 5 mps 748 mmHg 76%
09:00 +19°C° 0 mm 5 mps 748 mmHg 68%
10:00 +21°C° 0 mm 6 mps 749 mmHg 59%
11:00 +21°C° 0 mm 6 mps 749 mmHg 56%
12:00 +21°C° 0 mm 6 mps 749 mmHg 52%
13:00 +21°C° 0 mm 6 mps 749 mmHg 49%
14:00 +22°C° 0 mm 6 mps 749 mmHg 47%
15:00 +22°C° 0 mm 6 mps 749 mmHg 46%
16:00 +22°C° 0 mm 6 mps 749 mmHg 44%
17:00 +21°C° 0 mm 5 mps 749 mmHg 45%
18:00 +21°C° 0 mm 4 mps 749 mmHg 45%
19:00 +20°C° 0 mm 4 mps 749 mmHg 46%
20:00 +19°C° 0 mm 3 mps 750 mmHg 50%
21:00 +18°C° 0 mm 3 mps 750 mmHg 54%
22:00 +17°C° 0 mm 3 mps 751 mmHg 57%
23:00 +16°C° 0 mm 3 mps 751 mmHg 61%

Tomorrow, 3 August, Tuesday

Time Temperature Precipitation Wind Pressure Humidity
00:00 +14°C° 0 mm 3 mps 751 mmHg 65%
01:00 +13°C° 0 mm 3 mps 751 mmHg 69%
02:00 +13°C° 0 mm 3 mps 751 mmHg 74%
03:00 +12°C° 0 mm 3 mps 751 mmHg 79%
04:00 +12°C° 0 mm 3 mps 752 mmHg 84%
05:00 +13°C° 0 mm 3 mps 752 mmHg 80%
06:00 +16°C° 0 mm 3 mps 752 mmHg 75%
07:00 +17°C° 0 mm 4 mps 753 mmHg 71%
08:00 +18°C° 0 mm 4 mps 753 mmHg 63%
09:00 +20°C° 0 mm 4 mps 753 mmHg 55%
10:00 +22°C° 0 mm 4 mps 753 mmHg 48%
11:00 +22°C° 0 mm 4 mps 752 mmHg 44%
12:00 +24°C° 0 mm 3 mps 752 mmHg 41%
13:00 +25°C° 0 mm 3 mps 752 mmHg 37%
14:00 +24°C° 0 mm 3 mps 752 mmHg 40%
15:00 +24°C° 0 mm 2 mps 751 mmHg 42%
16:00 +24°C° 0 mm 1 mps 751 mmHg 44%
17:00 +23°C° 0.1 mm 1 mps 751 mmHg 48%
18:00 +22°C° 0.1 mm 1 mps 751 mmHg 52%
19:00 +21°C° 0.1 mm 1 mps 751 mmHg 56%
20:00 +20°C° 0.6 mm 1 mps 751 mmHg 66%
21:00 +17°C° 0.6 mm 2 mps 751 mmHg 76%
22:00 +16°C° 0.6 mm 2 mps 752 mmHg 86%
23:00 +16°C° 0 mm 2 mps 752 mmHg 86%

Day after tomorrow, 4 August, Wednesday

Time Temperature Precipitation Wind Pressure Humidity
00:00 +16°C° 0 mm 1 mps 752 mmHg 86%
01:00 +16°C° 0 mm 1 mps 752 mmHg 86%
02:00 +15°C° 0 mm 1 mps 752 mmHg 88%
03:00 +15°C° 0 mm 1 mps 752 mmHg 89%
04:00 +14°C° 0 mm 1 mps 751 mmHg 91%
05:00 +16°C° 0 mm 1 mps 752 mmHg 86%
06:00 +18°C° 0 mm 1 mps 752 mmHg 81%
07:00 +19°C° 0 mm 1 mps 752 mmHg 76%
08:00 +21°C° 0 mm 1 mps 752 mmHg 69%
09:00 +22°C° 0 mm 1 mps 752 mmHg 61%
10:00 +24°C° 0 mm 1 mps 752 mmHg 54%
11:00 +25°C° 0.1 mm 2 mps 751 mmHg 51%
12:00 +26°C° 0.1 mm 2 mps 751 mmHg 48%
13:00 +26°C° 0.1 mm 2 mps 751 mmHg 44%
14:00 +26°C° 0 mm 2 mps 751 mmHg 47%
15:00 +25°C° 0 mm 2 mps 751 mmHg 49%
16:00 +24°C° 0 mm 2 mps 751 mmHg 52%
17:00 +23°C° 0 mm 2 mps 751 mmHg 56%
18:00 +21°C° 0 mm 2 mps 751 mmHg 60%
19:00 +21°C° 0 mm 1 mps 751 mmHg 64%
20:00 +21°C° 0 mm 1 mps 751 mmHg 66%
21:00 +19°C° 0 mm 2 mps 751 mmHg 68%
22:00 +19°C° 0 mm 2 mps 751 mmHg 70%
23:00 +19°C° 0 mm 2 mps 751 mmHg 73%

5 August, Thursday

Time Temperature Precipitation Wind Pressure Humidity
00:00 +19°C° 0 mm 1 mps 751 mmHg 76%
01:00 +19°C° 0 mm 1 mps 751 mmHg 78%
02:00 +19°C° 0 mm 1 mps 750 mmHg 78%
03:00 +19°C° 0 mm 1 mps 750 mmHg 77%
04:00 +19°C° 0 mm 1 mps 750 mmHg 76%
05:00 +19°C° 0 mm 1 mps 749 mmHg 77%
06:00 +19°C° 0 mm 1 mps 749 mmHg 77%
07:00 +19°C° 0 mm 1 mps 749 mmHg 77%
08:00 +19°C° 0.9 mm 1 mps 749 mmHg 80%
09:00 +18°C° 0.9 mm 2 mps 749 mmHg 84%
10:00 +17°C° 0.9 mm 2 mps 748 mmHg 87%
11:00 +17°C° 2.5 mm 3 mps 748 mmHg 90%
12:00 +17°C° 2.5 mm 3 mps 747 mmHg 93%
13:00 +17°C° 2.5 mm 4 mps 747 mmHg 95%
14:00 +17°C° 2.9 mm 4 mps 746 mmHg 95%
15:00 +17°C° 2.9 mm 4 mps 746 mmHg 96%
16:00 +17°C° 2.9 mm 4 mps 745 mmHg 96%
17:00 +16°C° 1.4 mm 5 mps 745 mmHg 96%
18:00 +16°C° 1.4 mm 5 mps 744 mmHg 96%
19:00 +16°C° 1.4 mm 5 mps 744 mmHg 96%
20:00 +15°C° 0.5 mm 6 mps 744 mmHg 96%
21:00 +15°C° 0.5 mm 6 mps 744 mmHg 96%
22:00 +15°C° 0.5 mm 7 mps 744 mmHg 96%
23:00 +15°C° 0.3 mm 7 mps 744 mmHg 96%

6 August, Friday

Time Temperature Precipitation Wind Pressure Humidity
00:00 +15°C° 0.3 mm 7 mps 743 mmHg 95%
01:00 +15°C° 0.3 mm 7 mps 743 mmHg 95%
02:00 +15°C° 0.3 mm 7 mps 743 mmHg 94%
03:00 +15°C° 0.3 mm 6 mps 743 mmHg 94%
04:00 +15°C° 0.3 mm 6 mps 743 mmHg 94%
05:00 +15°C° 0.1 mm 6 mps 743 mmHg 93%
06:00 +15°C° 0.1 mm 6 mps 743 mmHg 92%
07:00 +15°C° 0.1 mm 7 mps 743 mmHg 91%
08:00 +17°C° 0 mm 7 mps 744 mmHg 83%
09:00 +18°C° 0 mm 8 mps 744 mmHg 75%
10:00 +21°C° 0 mm 9 mps 744 mmHg 67%
11:00 +22°C° 0 mm 9 mps 744 mmHg 59%
12:00 +23°C° 0 mm 8 mps 744 mmHg 51%
13:00 +26°C° 0 mm 8 mps 744 mmHg 43%
14:00 +24°C° 0 mm 8 mps 744 mmHg 46%
15:00 +24°C° 0 mm 7 mps 744 mmHg 49%
16:00 +24°C° 0 mm 7 mps 745 mmHg 51%
17:00 +23°C° 0.1 mm 6 mps 745 mmHg 57%
18:00 +22°C° 0.1 mm 5 mps 745 mmHg 63%
19:00 +21°C° 0.1 mm 5 mps 745 mmHg 69%
20:00 +20°C° 0 mm 4 mps 745 mmHg 74%
21:00 +19°C° 0 mm 4 mps 746 mmHg 78%
22:00 +18°C° 0 mm 4 mps 746 mmHg 83%
23:00 +17°C° 0 mm 4 mps 746 mmHg 86%

7 August, Saturday

Time Temperature Precipitation Wind Pressure Humidity
00:00 +17°C° 0 mm 3 mps 747 mmHg 89%
01:00 +16°C° 0 mm 3 mps 747 mmHg 92%
02:00 +16°C° 0 mm 3 mps 747 mmHg 93%
03:00 +16°C° 0 mm 3 mps 747 mmHg 93%
04:00 +16°C° 0 mm 3 mps 748 mmHg 94%
05:00 +17°C° 0 mm 3 mps 748 mmHg 89%
06:00 +18°C° 0 mm 4 mps 748 mmHg 84%
07:00 +19°C° 0 mm 4 mps 748 mmHg 78%
08:00 +20°C° 0 mm 4 mps 748 mmHg 71%
09:00 +22°C° 0 mm 4 mps 749 mmHg 63%
10:00 +23°C° 0 mm 4 mps 749 mmHg 56%
11:00 +25°C° 0 mm 4 mps 748 mmHg 51%
12:00 +26°C° 0 mm 4 mps 748 mmHg 47%
13:00 +27°C° 0 mm 4 mps 748 mmHg 43%
14:00 +27°C° 0 mm 4 mps 748 mmHg 42%
15:00 +28°C° 0 mm 4 mps 748 mmHg 41%
16:00 +28°C° 0 mm 4 mps 747 mmHg 41%
17:00 +27°C° 0 mm 3 mps 747 mmHg 46%
18:00 +26°C° 0 mm 2 mps 747 mmHg 52%
19:00 +25°C° 0 mm 2 mps 747 mmHg 58%
20:00 +24°C° 0 mm 3 mps 747 mmHg 58%
21:00 +22°C° 0 mm 3 mps 746 mmHg 59%
22:00 +21°C° 0 mm 4 mps 746 mmHg 60%
23:00 +22°C° 0 mm 4 mps 746 mmHg 59%
Show more